Rafha, Saudi Arabia

3:34 AM AST on December 11, 2016 (GMT +0300)
Rafha

Weather History for OERF - January, 2013

Change the Weather History Date:

Thursday, January 3, 2013

  Actual Average Record
Temperature  
Mean Temperature 50 °F -  
Max Temperature 60 °F 60 °F 71 °F (2000)
Min Temperature 39 °F 40 °F 21 °F (2009)
Degree Days  
Heating Degree Days 16    
Moisture  
Dew Point 38 °F    
Average Humidity 63    
Maximum Humidity 87    
Minimum Humidity 31    
Precipitation  
Precipitation 0.00 in - - ()
Sea Level Pressure  
Sea Level Pressure 30.24 in    
Wind  
Wind Speed 6 mph ()    
Max Wind Speed 14 mph    
Max Gust Speed -    
Visibility 6.0 miles    
Events      
Averages and records for this station are not official NWS values.
T = Trace of Precipitation, MM = Missing Value Source: Averaged Metar Reports

Daily Weather History Graph

Daily Weather History Graph

Search for Another Location

Airport or City:

Trip Planner

Search our weather history database for the weather conditions in past years. The results will help you decide how hot, cold, wet, or windy it might be!

Date:

Astronomy

Jan. 03, 2013 Rise Set
Actual Time 7:01 AM AST 5:19 PM AST
Civil Twilight 6:35 AM AST 5:45 PM AST
Nautical Twilight 6:05 AM AST 6:15 PM AST
Astronomical Twilight 5:36 AM AST 6:44 PM AST
Moon 11:01 PM AST (1/3) 10:29 AM AST (1/3)
Length of Visible Light 11h 10m
Length of Day
10h 18m
Waning Gibbous, 69% of the Moon is Illuminated
Jan 3
Waning Gibbous
Jan 5
Last Quarter
Jan 11
New
Jan 19
First Quarter
Jan 27
Full

Hourly Weather History & Observations

Time (AST) Temp. Windchill Dew Point Humidity Pressure Visibility Wind Dir Wind Speed Gust Speed Precip Events Conditions
12:00 AM 47 °F - 39 °F 66% 30.22 in 6 mi North 5.8 mph - -  
12:00 AM 46.4 °F 43.5 °F 39.2 °F 76% 30.21 in - North 5.8 mph - N/A   Clear
1:00 AM 46.4 °F 44.3 °F 39.2 °F 76% 30.21 in - NNW 4.6 mph - N/A   Clear
2:00 AM 44.6 °F 42.2 °F 39.2 °F 81% 30.21 in - NNW 4.6 mph - N/A   Clear
3:00 AM 45 °F - 39 °F 73% 30.23 in 6 mi NNW 4.6 mph - -  
3:00 AM 44.6 °F 42.2 °F 39.2 °F 81% 30.21 in - NNW 4.6 mph - N/A   Clear
4:00 AM 42.8 °F 39.3 °F 37.4 °F 81% 30.21 in - NNW 5.8 mph - N/A   Clear
5:00 AM 42.8 °F 38.6 °F 35.6 °F 76% 30.21 in - WNW 6.9 mph - N/A   Clear
6:00 AM 41 °F - 37 °F 82% 30.25 in 6 mi NW 5.8 mph - -  
6:00 AM 41.0 °F 37.1 °F 37.4 °F 87% 30.21 in - NW 5.8 mph - N/A   Clear
7:00 AM 41.0 °F 38.0 °F 37.4 °F 87% 30.27 in - WNW 4.6 mph - N/A   Clear
8:00 AM 41.0 °F 39.0 °F 35.6 °F 81% 30.27 in - NW 3.5 mph - N/A   Clear
9:00 AM 47 °F - 39 °F 66% 30.30 in 6 mi SW 5.8 mph - -  
9:00 AM 46.4 °F 43.5 °F 39.2 °F 76% 30.27 in - SW 5.8 mph - N/A   Clear
10:00 AM 50.0 °F - 37.4 °F 62% 30.30 in - NNW 8.1 mph - N/A   Clear
11:00 AM 53.6 °F - 37.4 °F 54% 30.30 in - NNW 9.2 mph - N/A   Clear
12:00 PM 56 °F - 39 °F 42% 30.28 in 6 mi NNW 11.5 mph - -  
12:00 PM 55.4 °F - 39.2 °F 54% 30.27 in - NNW 11.5 mph - N/A   Clear
1:00 PM 59.0 °F - 37.4 °F 45% 30.24 in - North 11.5 mph - N/A   Clear
2:00 PM 59.0 °F - 39.2 °F 48% 30.21 in - North 13.8 mph - N/A   Clear
3:00 PM 60 °F - 37 °F 31% 30.22 in 6 mi NNW 13.8 mph - -  
3:00 PM 60.8 °F - 37.4 °F 42% 30.21 in - NNW 13.8 mph - N/A   Clear
4:00 PM 59.0 °F - 37.4 °F 45% 30.21 in - North 12.7 mph - N/A   Clear
5:00 PM 59.0 °F - 37.4 °F 45% 30.21 in - North 11.5 mph - N/A   Clear
6:00 PM 54 °F - 37 °F 42% 30.27 in 6 mi NNW 9.2 mph - -  
6:00 PM 53.6 °F - 37.4 °F 54% 30.24 in - NNW 9.2 mph - N/A   Clear
7:00 PM 51.8 °F - 37.4 °F 58% 30.24 in - NNW 5.8 mph - N/A   Clear
8:00 PM 50.0 °F - 37.4 °F 62% 30.24 in - NNW 6.9 mph - N/A   Clear
9:00 PM 49 °F - 36 °F 49% 30.27 in 6 mi NNW 2.3 mph - -  
9:00 PM 48.2 °F - 35.6 °F 62% 30.24 in - NNW 2.3 mph - N/A   Clear
10:00 PM 48.2 °F - 35.6 °F 62% 30.24 in - Calm Calm - N/A   Clear
11:00 PM 46.4 °F - 33.8 °F 62% 30.24 in - Calm Calm - N/A   Clear